| time (UTC) | temp C | wind direction | speed KPH | gust KPH | rain 1hr cm | rain 24hr cm | rain mn cm | humidity % | barometer mb |
| 20260506103902 | 20 | 225 | 1.6 | 9.7 | 0.00 | 0.00 | 0.00 | 50 | |
| 20260506102403 | 20 | 225 | 1.6 | 6.4 | 0.00 | 0.00 | 0.00 | 52 | |
| 20260506095402 | 20 | 247 | 1.6 | 8.0 | 0.00 | 0.00 | 0.00 | 52 | |
| 20260506093902 | 20 | 225 | 1.6 | 9.7 | 0.00 | 0.00 | 0.00 | 54 | |
| 20260506092403 | 20 | 225 | 4.8 | 11.3 | 0.00 | 0.00 | 0.00 | 53 | |
| 20260506090902 | 18 | 225 | 3.2 | 8.0 | 0.00 | 0.00 | 0.00 | 55 | |
| 20260506085402 | 18 | 225 | 3.2 | 6.4 | 0.00 | 0.00 | 0.00 | 56 | |
| 20260506083901 | 18 | 225 | 3.2 | 8.0 | 0.00 | 0.00 | 0.00 | 58 | |
| 20260506082402 | 18 | 225 | 3.2 | 8.0 | 0.00 | 0.00 | 0.00 | 58 | |
| 20260506080902 | 18 | 0 | 1.6 | 3.2 | 0.00 | 0.00 | 0.00 | 59 | |
| 20260506072402 | 18 | 225 | 1.6 | 8.0 | 0.00 | 0.00 | 0.00 | 61 | |
| 20260506070903 | 18 | 225 | 3.2 | 11.3 | 0.00 | 0.00 | 0.00 | 63 | |
| 20260506062404 | 17 | 225 | 3.2 | 14.5 | 0.00 | 0.00 | 0.00 | 64 | |
| 20260506060902 | 18 | 247 | 4.8 | 11.3 | 0.00 | 0.00 | 0.00 | 63 | |
| 20260506050903 | 18 | 247 | 3.2 | 8.0 | 0.00 | 0.00 | 0.00 | 66 | |
| 20260506043904 | 15 | 225 | 3.2 | 4.8 | 0.00 | 0.00 | 0.00 | 76 | |
| 20260506042405 | 10 | 225 | 0.0 | 1.6 | 0.00 | 0.00 | 0.00 | 85 | |
| 20260506040902 | 9 | 247 | 0.0 | 1.6 | 0.00 | 0.00 | 0.00 | 87 | |
| 20260506035403 | 9 | 247 | 0.0 | 0.0 | 0.00 | 0.00 | 0.00 | 86 | |
| 20260506033902 | 9 | 247 | 0.0 | 0.0 | 0.00 | 0.00 | 0.00 | 87 | |
| 20260506032402 | 9 | 247 | 0.0 | 0.0 | 0.00 | 0.00 | 0.00 | 87 | |
| 20260506030902 | 10 | 247 | 0.0 | 0.0 | 0.00 | 0.00 | 0.00 | 88 | |
| 20260506025402 | 10 | 247 | 0.0 | 3.2 | 0.00 | 0.00 | 0.00 | 87 | |
| 20260506023901 | 10 | 247 | 1.6 | 4.8 | 0.00 | 0.00 | 0.00 | 88 | |
| 20260506022402 | 11 | 270 | 3.2 | 9.7 | 0.00 | 0.00 | 0.00 | 88 | |
| 20260506015401 | 11 | 247 | 1.6 | 4.8 | 0.00 | 0.00 | 0.00 | 87 | |
| 20260506013901 | 11 | 247 | 1.6 | 6.4 | 0.00 | 0.00 | 0.00 | 87 | |
| 20260506012402 | 11 | 247 | 1.6 | 6.4 | 0.00 | 0.00 | 0.00 | 85 | |
| 20260506010901 | 11 | 270 | 1.6 | 6.4 | 0.00 | 0.00 | 0.00 | 84 | |
| 20260506005403 | 11 | 247 | 3.2 | 8.0 | 0.00 | 0.00 | 0.00 | 82 | |
| 20260506003902 | 12 | 270 | 3.2 | 8.0 | 0.00 | 0.00 | 0.00 | 82 | |
| 20260506002402 | 12 | 270 | 3.2 | 9.7 | 0.00 | 0.00 | 0.00 | 81 | |
| 20260506000902 | 12 | 270 | 4.8 | 19.3 | 0.00 | 0.00 | 0.00 | 81 | |
| 20260505235403 | 12 | 0 | 6.4 | 19.3 | 0.00 | 0.00 | 0.00 | 80 | |
| 20260505233901 | 13 | 270 | 6.4 | 19.3 | 0.00 | 0.00 | 0.00 | 78 | |
| 20260505232406 | 13 | 0 | 8.0 | 22.5 | 0.00 | 0.00 | 0.00 | 79 | |
| 20260505230901 | 13 | 0 | 8.0 | 19.3 | 0.00 | 0.00 | 0.00 | 77 | |
| 20260505225403 | 14 | 315 | 8.0 | 25.7 | 0.00 | 0.00 | 0.00 | 74 | |
| 20260505223902 | 15 | 0 | 8.0 | 22.5 | 0.00 | 0.00 | 0.00 | 72 | |
| 20260505222402 | 15 | 337 | 8.0 | 25.7 | 0.00 | 0.00 | 0.00 | 71 | |
| 20260505220902 | 15 | 292 | 9.7 | 30.6 | 0.00 | 0.00 | 0.00 | 69 | |
| 20260505215403 | 15 | 270 | 8.0 | 24.1 | 0.00 | 0.00 | 0.00 | 69 | |
| 20260505213902 | 15 | 270 | 8.0 | 19.3 | 0.00 | 0.00 | 0.00 | 69 | |
| 20260505212402 | 15 | 247 | 8.0 | 24.1 | 0.00 | 0.00 | 0.00 | 65 | |
| 20260505210902 | 15 | 225 | 4.8 | 19.3 | 0.00 | 0.00 | 0.00 | 62 | |
| 20260505205402 | 16 | 225 | 4.8 | 12.9 | 0.00 | 0.00 | 0.00 | 61 | |
| 20260505203902 | 16 | 225 | 4.8 | 9.7 | 0.00 | 0.00 | 0.00 | 59 | |
| 20260505202401 | 15 | 225 | 3.2 | 8.0 | 0.00 | 0.00 | 0.00 | 59 | |
| 20260505200902 | 16 | 45 | 1.6 | 6.4 | 0.00 | 0.00 | 0.00 | 57 | |
| 20260505195403 | 16 | 22 | 3.2 | 12.9 | 0.00 | 0.00 | 0.00 | 56 | |
| 20260505193902 | 17 | 90 | 4.8 | 12.9 | 0.00 | 0.00 | 0.00 | 54 | |
| 20260505192402 | 17 | 22 | 3.2 | 9.7 | 0.00 | 0.00 | 0.00 | 54 | |
| 20260505190902 | 17 | 45 | 3.2 | 11.3 | 0.00 | 0.00 | 0.00 | 53 | |
| 20260505185401 | 17 | 90 | 6.4 | 12.9 | 0.00 | 0.00 | 0.00 | 54 | |
| 20260505183902 | 16 | 90 | 4.8 | 8.0 | 0.00 | 0.00 | 0.00 | 54 | |
| 20260505182402 | 16 | 90 | 3.2 | 4.8 | 0.00 | 0.00 | 0.00 | 55 | |
| 20260505180902 | 17 | 112 | 0.0 | 0.0 | 0.00 | 0.00 | 0.00 | 56 | |
| 20260505175402 | 17 | 112 | 0.0 | 0.0 | 0.00 | 0.00 | 0.00 | 52 | |
| 20260505173903 | 18 | 112 | 0.0 | 1.6 | 0.00 | 0.00 | 0.00 | 48 | |
| 20260505172403 | 20 | 112 | 3.2 | 4.8 | 0.00 | 0.00 | 0.00 | 44 | |
| 20260505170903 | 20 | 90 | 1.6 | 3.2 | 0.00 | 0.00 | 0.00 | 45 | |
| 20260505163902 | 20 | 90 | 3.2 | 6.4 | 0.00 | 0.00 | 0.00 | 43 | |
| 20260505162404 | 20 | 67 | 3.2 | 6.4 | 0.00 | 0.00 | 0.00 | 42 | |
| 20260505160901 | 21 | 67 | 1.6 | 4.8 | 0.00 | 0.00 | 0.00 | 44 | |
| 20260505152403 | 21 | 67 | 1.6 | 8.0 | 0.00 | 0.00 | 0.00 | 42 | |
| 20260505150901 | 21 | 22 | 1.6 | 9.7 | 0.00 | 0.00 | 0.00 | 44 | |
| 20260505123902 | 22 | 112 | 0.0 | 3.2 | 0.00 | 0.00 | 0.00 | 44 | |
| 20260505122406 | 23 | 67 | 3.2 | 12.9 | 0.00 | 0.00 | 0.00 | 41 | |
| 20260505120902 | 25 | 45 | 4.8 | 14.5 | 0.00 | 0.00 | 0.00 | 39 | |
| 20260505115403 | 23 | 45 | 6.4 | 19.3 | 0.00 | 0.00 | 0.00 | 40 | |
| 20260505113902 | 23 | 247 | 3.2 | 9.7 | 0.00 | 0.00 | 0.00 | 41 | |
| 20260505112402 | 23 | 225 | 3.2 | 12.9 | 0.00 | 0.00 | 0.00 | 43 | |
| 20260505110901 | 23 | 225 | 3.2 | 11.3 | 0.00 | 0.00 | 0.00 | 45 |